Regional Weather Roundup
Issued by NWS

Home | Current Version | Previous Version | Graphics & Text | Print | Product List | Glossary On
Versions: 1 2 3 4 5 6 7 8 9 10 11 12 13 14 15 16 17 18 19 20 21 22 23 24 25 26 27 28 29 30 31 32 33 34 35 36 37 38 39 40 41 42 43 44 45 46 47 48 49 50
000
ASUS43 KMPX 251601
RWRMN
WEATHER ROUNDUP FOR MINNESOTA
NATIONAL WEATHER SERVICE TWIN CITIES/CHANHASSEN MN
1100 AM CDT SAT MAR 25 2017


NOTE: "FAIR" INDICATES FEW OR NO CLOUDS BELOW 12,000 FEET WITH NO
SIGNIFICANT WEATHER AND/OR OBSTRUCTIONS TO VISIBILITY. N/A MEANS
CURRENT SKY AND/OR WEATHER CONDITIONS ARE NOT AVAILABLE.

MNZ060>063-068>070-251700-
   Twin Cities Metro

CITY           SKY/WX    TMP DP  RH WIND       PRES   REMARKS
TWIN CITIES    CLOUDY    39  31  72 NE13      30.18S
ST PAUL        CLOUDY    39  33  79 NE14      30.20S
CRYSTAL        CLOUDY    37  29  72 NE10      30.18S
BLAINE         CLOUDY    37  34  87 E16       30.19S
LAKEVILLE      CLOUDY    37  34  87 NE13      30.16S
EDEN PRAIRIE   CLOUDY    39  32  76 NE13      30.15F
SOUTH ST PAUL  CLOUDY    39  32  76 NE6       30.18F
LAKE ELMO      CLOUDY    37  32  81 NE9G16    30.19F
$$
MNZ001>005-007-008-013>017-022>024-027-028-251700-
   Northwest Minnesota

CITY           SKY/WX    TMP DP  RH WIND       PRES   REMARKS
BEMIDJI        CLOUDY    34  27  76 SE14G23   30.21S WCI  24
HALLOCK        MOSUNNY   37  34  87 S17       30.15F
ROSEAU         PTSUNNY   39  30  70 S15       30.18F
WARROAD        CLOUDY    37  30  75 SE17      30.19F
THIEF RVR FALL CLOUDY   N/A N/A N/A SE13G21   30.19S
CROOKSTON      PTSUNNY   37  32  81 S18       30.18S
FOSSTON        CLOUDY    36  30  80 SE17      30.18F
DETROIT LAKES  CLOUDY    36  30  80 SE20      30.17F
MOORHEAD       CLOUDY    34  30  86 S13G18    30.19F WCI  25
PARK RAPIDS    CLOUDY    36  25  64 E12       30.19F
MAHNOMEN       CLOUDY    35  29  80 SE14      30.17F WCI  25
$$
MNZ006-009>011-018-025>026-251700-
   North Central Minnesota

CITY           SKY/WX    TMP DP  RH WIND       PRES   REMARKS
BAUDETTE       CLOUDY    37  29  72 SE13      30.21F
FLAG ISLAND    CLOUDY    34  30  86 S16       30.20F WCI  23
INTL FALLS     CLOUDY    36  26  67 SE15      30.25F
WASKISH        CLOUDY    37  28  70 SE15G22   30.22F
BIG FORK       CLOUDY    34  27  75 SE9       30.25S WCI  26
LONGVILLE      CLOUDY    36  27  69 SE10G16   30.21F
GRAND RAPIDS   CLOUDY    34  26  72 E10       30.26F WCI  26
CRANE LAKE     CLOUDY    34  25  69 SE3       30.30R
ORR            CLOUDY    34  23  64 SE9       30.25S WCI  26
COOK           CLOUDY    30  27  86 E7        30.28S WCI  23
WALKER         CLOUDY    33  27  79 E9G18     30.22S WCI  25
$$
MNZ012-019>021-037-251700-
   Northeast Minnesota

CITY           SKY/WX    TMP DP  RH WIND       PRES   REMARKS
DULUTH         CLOUDY    32  30  92 E17       30.25S WCI  21
ELY            CLOUDY    30  23  74 SE15      30.28F WCI  19
HIBBING        CLOUDY    32  26  78 E13G22    30.26S WCI  22
EVELETH        CLOUDY    33  24  70 E8        30.28S WCI  26
DULUTH HARBOR  CLOUDY    36  30  80 NE23      30.29F
TWO HARBORS    CLOUDY    36  30  80 E20       30.28R
SILVER BAY     CLOUDY    32  28  86 NE15G21   30.30S WCI  22
GRAND MARAIS     N/A     32  25  75 NE16G23   30.38R WCI  21
G MARAIS ARPRT MOSUNNY   28  16  59 E12       30.31S WCI  18
$$
MNZ029>031-032-039>041-046>048-054>057-064-251700-
   West Central Minnesota

CITY           SKY/WX    TMP DP  RH WIND       PRES   REMARKS
FERGUS FALLS   CLOUDY    34  28  80 SE8       30.23S WCI  27
WHEATON        CLOUDY    34  30  86 SE13      30.20S WCI  25
MORRIS         CLOUDY    36  30  80 E10       30.17F
ALEXANDRIA     CLOUDY    33  29  85 E9        30.19S WCI  25
ELBOW LAKE     CLOUDY    33  29  86 SE12      30.19S WCI  24
WADENA         CLOUDY    36  27  69 E15       30.18F
GLENWOOD       CLOUDY    34  30  86 E13       30.18F WCI  25
APPLETON       CLOUDY    36  30  80 SE8       30.17F
BENSON         CLOUDY    37  28  70 SE6       30.19S
ORTONVILLE     CLOUDY    34  30  86 SE10      30.18R WCI  26
MADISON        CLOUDY    37  36  93 SE10      30.17S
WILLMAR        CLOUDY    37  34  87 E12       30.18F
$$
MNZ033>034-036-042>043-049>051-058-059-251700-
   Central Minnesota

CITY           SKY/WX    TMP DP  RH WIND       PRES   REMARKS
ST CLOUD       CLOUDY    35  31  85 E12G20    30.19F WCI  27
SAUK CENTRE    CLOUDY    34  30  85 E14       30.18F WCI  24
PAYNESVILLE      N/A     35  31  84 E9        30.18S WCI  28
AITKIN         CLOUDY    37  27  65 E12G20    30.21F
PINE RIVER     CLOUDY    36  28  75 SE14      30.24F
BRAINERD       CLOUDY    36  27  69 E7        30.22S
STAPLES        CLOUDY    36  27  69 E12       30.20S
LONG PRAIRIE   CLOUDY    34  30  86 NE10      30.18F WCI  26
LITTLE FALLS   CLOUDY    36  28  75 E8        30.20F
LITCHFIELD     CLOUDY    37  34  87 E9        30.18F
BUFFALO        CLOUDY    36  31  81 E12       30.20S
MAPLE LAKE     CLOUDY    37  33  84 E9        30.20S
HUTCHINSON     CLOUDY    38  34  87 NE15      30.18S
$$
MNZ037-044-045-052-053-251700-
   East Central Minnesota

CITY           SKY/WX    TMP DP  RH WIND       PRES   REMARKS
PRINCETON      CLOUDY    37  30  75 NE9G16    30.21S
MORA           CLOUDY    36  30  80 E10G16    30.22F
CAMBRIDGE      CLOUDY    39  28  65 E5        30.20S
RUSH CITY      CLOUDY    37  31  79 E8        30.22S
MOOSE LAKE     CLOUDY    36  28  75 E9        30.22S
CLOQUET        CLOUDY    34  28  80 E12G21    30.24S WCI  25
MCGREGOR       CLOUDY    36  30  80 E16       30.23S
$$
MNZ071>073-080-081-089-090-097-098-251700-
   Southwest Minnesota

CITY           SKY/WX    TMP DP  RH WIND       PRES   REMARKS
MONTEVIDEO     CLOUDY    36  34  93 SE12      30.18S
GRANITE FALLS  CLOUDY    38  34  84 E7        30.18S
CANBY          CLOUDY    37  34  89 E9        30.16F
MARSHALL       CLOUDY    36  34  92 E14       30.15S FOG
REDWOOD FALLS  CLOUDY    38  32  79 NE10G18   30.15S
OLIVIA         CLOUDY    36  32  87 NE13      30.16S
PIPESTONE      CLOUDY    36  32  87 E12G17    30.09F FOG
WINDOM         CLOUDY    37  36  93 NE17      30.09F FOG
WORTHINGTON    CLOUDY    36  35  96 NE17      30.08F FOG
JACKSON        CLOUDY    36  34  93 NE17G23   30.08F FOG
TRACY          CLOUDY    37  36  99 NE12      30.14S FOG
SLAYTON        CLOUDY    34  34 100 NE14      30.11S FOG     WCI  24
$$
MNZ065>067-074>077-082>085-091>093-251700-
   South Central Minnesota

CITY           SKY/WX    TMP DP  RH WIND       PRES   REMARKS
MANKATO        CLOUDY    39  34  82 NE16      30.11F
NEW ULM        CLOUDY    37  34  87 NE12G18   30.12F
ST JAMES       CLOUDY    37  36  93 NE12G18   30.11F
FAIRMONT       CLOUDY    38  35  89 NE17      30.08F
GLENCOE        CLOUDY    38  35  88 NE7       30.16S
FARIBAULT      CLOUDY    37  34  87 NE10G21   30.13S
OWATONNA       CLOUDY    37  34  87 NE17G23   30.10F
WASECA         CLOUDY    37  34  87 NE17      30.10F
ALBERT LEA     CLOUDY    37  36  93 NE15G21   30.07S
$$
MNZ078>079-086>088-094>096-251700-
   Southeast Minnesota

CITY           SKY/WX    TMP DP  RH WIND       PRES   REMARKS
ROCHESTER      CLOUDY    36  33  89 NE22      30.09F
RED WING       CLOUDY    39  30  70 E7G16     30.15F
STANTON        CLOUDY    38  34  84 NE16      30.13F
DODGE CENTER   CLOUDY    37  34  87 NE16G23   30.09F
WINONA         CLOUDY    37  34  87 E8        30.14F
AUSTIN         CLOUDY    37  34  87 NE20      30.07R
PRESTON        CLOUDY    35  32  90 NE15      30.08F FOG     WCI  25
$$
ABBREVIATIONS USED IN REMARKS
   TC - TEMPERATURES IN CELSIUS
  WCI - WIND CHILL INDEX
   HX - HEAT INDEX
  VSB - VISIBILITY
$$



USA.gov is the U.S. government's official web portal to all federal, state and local government web resources and services.